Regional Weather Roundup
Issued by NWS Columbia, SC

Home | Current Version | Previous Version | Text Only | Print | Product List | Glossary On
Versions: 1 2 3 4 5 6 7 8 9 10 11 12 13 14 15 16 17 18 19 20 21 22 23 24 25 26 27 28 29 30 31 32 33 34 35 36 37 38 39 40 41 42 43 44 45 46 47 48 49 50
000
ASUS42 KCAE 241410
RWRCAE
REGIONAL WEATHER ROUNDUP
NATIONAL WEATHER SERVICE COLUMBIA SC
1000 AM EDT WED AUG 24 2016

NOTE: "FAIR" INDICATES FEW OR NO CLOUDS BELOW 12,000 FEET WITH NO
SIGNIFICANT WEATHER AND/OR OBSTRUCTIONS TO VISIBILITY.

NOT ALL STATIONS ARE QUALITY CONTROLLED BY THE NATIONAL
WEATHER SERVICE. USE DATA WITH CAUTION...ESPECIALLY
DEWPOINT OBSERVATIONS.

SCZ001>056-GAZ040-063>065-077-241500-
...UPSTATE SOUTH CAROLINA...

CITY           SKY/WX    TMP DP  RH WIND       PRES   REMARKS
ANDERSON       RAIN      74  71  91 NE3       30.30S FOG
LIBERTY        HVY RAIN  69  69  97 CALM      30.32R VSB 1
SPARTANBURG    CLOUDY    75  64  69 CALM      30.31S
CLEMSON        CLOUDY    73  70  90 E6        30.32S
GREENVILLE     LGT RAIN  70  68  93 N7        30.33S
GREENWOOD      PTSUNNY   80  65  59 SE3       30.31S
GREER          LGT RAIN  71  68  90 NW3       30.32R FOG
ROCK HILL      SUNNY     78  66  66 VRB3      30.32F
CHESTER        MOSUNNY   79  63  57 S8        30.32S
LAURENS        PTSUNNY   79  66  65 S3        30.30S


...CENTRAL SOUTH CAROLINA...

CITY           SKY/WX    TMP DP  RH WIND       PRES   REMARKS
COLUMBIA APT   MOSUNNY   82  68  62 SE9       30.28S
COLUMBIA OWENS SUNNY     82  68  62 SE5       30.30R
MCENTIRE ANGB  PTSUNNY   82  67  60 E5        30.29S
ORANGEBURG     SUNNY     81  69  67 VRB5      30.28S
SUMTER SHAW    SUNNY     81  68  64 E5        30.27S
NEWBERRY       SUNNY     81  68  65 SE6       30.32S
AIKEN          FAIR      79  68  69 SE7       30.33R
MANNING        FAIR      79  68  69 NE3       30.28S
LANCASTER      SUNNY     79  68  69 E5        30.31S
WINNSBORO      MOSUNNY   81  68  65 SE6       30.30S


...EASTERN AND COASTAL SOUTH CAROLINA...

CITY           SKY/WX    TMP DP  RH WIND       PRES   REMARKS
MYRTLE BEACH   SUNNY     82  59  44 NE12      30.29R
N MYRTLE BCH   SUNNY     81  61  50 NE10      30.27R
CONWAY         FAIR      81  61  50 E7        30.28R HAZE
MARION         FAIR      79  61  53 E7        30.29S
HARTSVILLE     FAIR      79  64  61 E3        30.30R
FLORENCE       SUNNY     81  65  58 E5        30.29S
DARLINGTON     SUNNY     81  67  62 E5        30.30S
CHARLESTON APT MOSUNNY   84  69  60 NE13      30.25S
MOUNT PLEASANT FAIR      82  72  69 CALM      30.26R
WALTERBORO     SUNNY     84  70  61 NE10      30.27S
BEAUFORT       MOSUNNY   84  71  65 NE9       30.25S


...EASTERN GEORGIA...

CITY           SKY/WX    TMP DP  RH WIND       PRES   REMARKS
AUGUSTA BUSH F SUNNY     82  69  64 SE7       30.27S
AUGUSTA DANIEL SUNNY     83  68  60 SE7       30.29S
THOMSON        CLOUDY    79  73  80 MISG      30.33S
WASHINGTON     FAIR      79  73  83 S3        30.29S
CLAXTON        FAIR      82  73  73 NE6       30.26R
SYLVANIA       SUNNY    N/A N/A N/A E7        30.27S
STATESBORO     SUNNY     83  73  72 E6        30.26S
SAVANNAH       MOSUNNY   85  70  60 NE9       30.24S


...SOUTHERN NORTH CAROLINA...

CITY           SKY/WX    TMP DP  RH WIND       PRES   REMARKS
CHARLOTTE      MOSUNNY   79  66  64 S7        30.32F
MONROE         SUNNY     78  66  66 VRB3      30.31F
WADESBORO      MOSUNNY   79  64  60 SE3       30.31S
ROCKINGHAM     MOSUNNY   78  64  60 E3        30.31S
RUTHERFORDTON    N/A     73  69  86 CALM      30.33F
ASHEVILLE      CLOUDY    68  63  84 CALM      30.37S

$$



USA.gov is the U.S. government's official web portal to all federal, state and local government web resources and services.